Find Kosmos-2282

NORAD ID: 23168 Int'l Des: 1994-038 Owner: PVO Country: RU operational
HEOCIRCULARGSO

当前视图

正在加载3D地球...

About Kosmos-2282

Kosmos-2282 (NORAD 23168) is a satellite launched Jul 6, 1994 by PVO of RU. It operates in HEO, CIRCULAR, GSO orbit with a mass of 2200.00 kg.

即将过境

Passes for default location (London). Set your location on the main map for personalized predictions.

高度历史

Loading altitude history...

两行轨道根数

1 23168U 94038A 26195.16810851 .00000051 00000-0 00000+0 0 9992
2 23168 13.8635 352.5099 0006312 129.6153 56.3891 1.00287308117279
Epoch: Jul 14, 2026 • Age: 13 hours

当前状态

高度 35787.3 km
远地点 / 近地点 N/A
速度 3.07 km/s
星下点 6.09°N, 174.75°W
发射日期 Jul 6, 1994
运行时间 32 years
类型 other

技术详情

分类 Payload
质量 2200.00 kg
干质量 2100.00 kg
总质量 2200.00 kg
长度 5.00 m
直径 2.00 m
跨度 10.00 m
形状 Step Cyl + 2 Pan
制造商 NPOL/KOMET
平台类型 Prognoz
阶段状态 In Orbit
所有者/国家 PVO/RU

Most Searched